DLH9TK EDDS-EDDF

Flight info

Callsign DLH9TK
Flight time 0h 23m
Altitude 22000
Route ETASA4B/25 ETASA T163 SPESA SPESA4B
Aircraft A320/M-SDE3FGHIRWY/LB1

Departure

Time 2026-05-07 13:56
Airport Stuttgart Airport (EDDS)

Arrival

Time 2026-05-07 14:19
Airport Frankfurt Main Airport (EDDF)
Time Latitude Longitude Altitude Speed Heading
2026-05-07 13:40 48.68868 9.19290 1257 ft 0 kts 344°
2026-05-07 13:44 48.68868 9.19291 1257 ft 2 kts 344°
2026-05-07 13:44 48.68852 9.19297 1262 ft 2 kts 344°
2026-05-07 13:44 48.68836 9.19304 1265 ft 2 kts 345°
2026-05-07 13:44 48.68820 9.19311 1263 ft 2 kts 353°
2026-05-07 13:45 48.68803 9.19310 1258 ft 2 kts 29°
2026-05-07 13:45 48.68791 9.19295 1260 ft 2 kts 69°
2026-05-07 13:45 48.68790 9.19289 1259 ft 0 kts 74°
2026-05-07 13:48 48.68793 9.19310 1259 ft 7 kts 75°
2026-05-07 13:48 48.68814 9.19419 1259 ft 12 kts 73°
2026-05-07 13:49 48.68836 9.19532 1262 ft 11 kts 73°
2026-05-07 13:49 48.68862 9.19669 1261 ft 15 kts 73°
2026-05-07 13:49 48.68891 9.19822 1262 ft 14 kts 78°
2026-05-07 13:49 48.68840 9.19894 1264 ft 11 kts 166°
2026-05-07 13:50 48.68817 9.19977 1257 ft 12 kts 66°
2026-05-07 13:50 48.68857 9.20107 1259 ft 14 kts 76°
2026-05-07 13:50 48.68885 9.20277 1257 ft 20 kts 74°
2026-05-07 13:50 48.68926 9.20484 1260 ft 21 kts 73°
2026-05-07 13:51 48.68967 9.20710 1263 ft 23 kts 75°
2026-05-07 13:51 48.69012 9.20947 1261 ft 24 kts 73°
2026-05-07 13:51 48.69062 9.21200 1257 ft 26 kts 74°
2026-05-07 13:51 48.69114 9.21473 1260 ft 27 kts 76°
2026-05-07 13:52 48.69166 9.21756 1265 ft 29 kts 73°
2026-05-07 13:52 48.69225 9.22051 1262 ft 30 kts 73°
2026-05-07 13:52 48.69279 9.22360 1266 ft 31 kts 73°
2026-05-07 13:52 48.69342 9.22673 1263 ft 32 kts 72°
2026-05-07 13:53 48.69401 9.22996 1263 ft 32 kts 75°
2026-05-07 13:53 48.69464 9.23318 1260 ft 33 kts 73°
2026-05-07 13:53 48.69529 9.23649 1261 ft 33 kts 76°
2026-05-07 13:53 48.69592 9.23991 1257 ft 32 kts 72°
2026-05-07 13:54 48.69589 9.24223 1260 ft 16 kts 119°
2026-05-07 13:54 48.69510 9.24314 1261 ft 14 kts 162°
2026-05-07 13:54 48.69416 9.24339 1257 ft 13 kts 198°
2026-05-07 13:54 48.69378 9.24259 1265 ft 0 kts 259°
2026-05-07 13:55 48.69377 9.24252 1262 ft 12 kts 259°
2026-05-07 13:55 48.69275 9.23705 1260 ft 91 kts 254°
2026-05-07 13:55 48.69046 9.22499 1266 ft 144 kts 255°
2026-05-07 13:55 48.68740 9.20905 1648 ft 159 kts 256°
2026-05-07 13:56 48.68434 9.19354 2580 ft 153 kts 257°
2026-05-07 13:56 48.68127 9.17745 3072 ft 169 kts 256°
2026-05-07 13:56 48.67778 9.15919 3439 ft 192 kts 256°
2026-05-07 13:56 48.67375 9.13876 3787 ft 214 kts 255°
2026-05-07 13:57 48.67070 9.11564 4330 ft 231 kts 269°
2026-05-07 13:57 48.67459 9.09179 5238 ft 237 kts 302°
2026-05-07 13:57 48.68605 9.07369 6195 ft 242 kts 321°
2026-05-07 13:57 48.70095 9.06138 6933 ft 259 kts 338°
2026-05-07 13:58 48.71852 9.05231 7638 ft 271 kts 339°
2026-05-07 13:58 48.73663 9.04305 8563 ft 277 kts 339°
2026-05-07 13:58 48.75490 9.03368 9496 ft 281 kts 339°
2026-05-07 13:58 48.77400 9.02416 10397 ft 287 kts 343°
2026-05-07 13:59 48.79371 9.02049 11219 ft 295 kts 359°
2026-05-07 13:59 48.81478 9.02535 11618 ft 321 kts 16°
2026-05-07 13:59 48.83563 9.04080 11882 ft 347 kts 30°
2026-05-07 13:59 48.85679 9.06030 12358 ft 361 kts 29°
2026-05-07 14:00 48.87981 9.07730 13107 ft 365 kts 18°
2026-05-07 14:00 48.90434 9.08716 13908 ft 366 kts
2026-05-07 14:00 48.92973 9.09104 14618 ft 369 kts
2026-05-07 14:00 48.95509 9.09441 15298 ft 372 kts
2026-05-07 14:01 48.98105 9.09803 16029 ft 377 kts
2026-05-07 14:01 49.00764 9.10185 16734 ft 381 kts
2026-05-07 14:01 49.03413 9.10567 17411 ft 385 kts
2026-05-07 14:01 49.06092 9.10955 18076 ft 389 kts
2026-05-07 14:02 49.08797 9.11349 18674 ft 392 kts
2026-05-07 14:02 49.11528 9.11747 18969 ft 394 kts
2026-05-07 14:02 49.14257 9.12147 19033 ft 394 kts
2026-05-07 14:02 49.17005 9.12548 18864 ft 401 kts
2026-05-07 14:03 49.19800 9.12945 18624 ft 405 kts
2026-05-07 14:03 49.22570 9.13334 18391 ft 405 kts
2026-05-07 14:03 49.25376 9.13732 18134 ft 404 kts
2026-05-07 14:03 49.28145 9.14130 17680 ft 396 kts
2026-05-07 14:04 49.30870 9.14526 17154 ft 390 kts
2026-05-07 14:04 49.33554 9.14914 16630 ft 386 kts
2026-05-07 14:04 49.36214 9.15297 16113 ft 382 kts
2026-05-07 14:04 49.38839 9.15672 15585 ft 378 kts
2026-05-07 14:05 49.41455 9.16049 15054 ft 375 kts
2026-05-07 14:05 49.44051 9.16421 14497 ft 373 kts
2026-05-07 14:05 49.46627 9.16787 13944 ft 371 kts
2026-05-07 14:05 49.49196 9.17154 13314 ft 370 kts
2026-05-07 14:06 49.51746 9.17519 12735 ft 367 kts
2026-05-07 14:06 49.54279 9.17878 12124 ft 364 kts
2026-05-07 14:06 49.56766 9.18230 11520 ft 362 kts
2026-05-07 14:06 49.59295 9.18594 10954 ft 359 kts
2026-05-07 14:07 49.61740 9.18901 10552 ft 348 kts 358°
2026-05-07 14:07 49.64087 9.18286 10136 ft 349 kts 339°
2026-05-07 14:07 49.66245 9.16644 10024 ft 339 kts 329°
2026-05-07 14:07 49.68233 9.14900 10041 ft 319 kts 329°
2026-05-07 14:08 49.70100 9.13242 10048 ft 301 kts 328°
2026-05-07 14:08 49.71864 9.11663 10048 ft 286 kts 329°
2026-05-07 14:08 49.73591 9.10113 10050 ft 282 kts 328°
2026-05-07 14:08 49.75278 9.08597 10048 ft 281 kts 328°
2026-05-07 14:09 49.76966 9.07077 10049 ft 280 kts 328°
2026-05-07 14:09 49.78650 9.05558 10052 ft 280 kts 328°
2026-05-07 14:09 49.80208 9.04153 10051 ft 280 kts 329°
2026-05-07 14:09 49.81895 9.02631 10052 ft 280 kts 328°
2026-05-07 14:10 49.83584 9.01110 10046 ft 281 kts 329°
2026-05-07 14:10 49.85271 8.99591 9911 ft 280 kts 329°
2026-05-07 14:10 49.86935 8.98088 9772 ft 280 kts 329°
2026-05-07 14:10 49.88633 8.96554 9650 ft 279 kts 329°
2026-05-07 14:11 49.90301 8.95041 9374 ft 276 kts 328°
2026-05-07 14:11 49.91972 8.93670 8982 ft 275 kts 335°
2026-05-07 14:11 49.93732 8.92624 8599 ft 274 kts 341°
2026-05-07 14:11 49.95624 8.91891 8201 ft 273 kts 348°
2026-05-07 14:12 49.97501 8.91517 7820 ft 272 kts 355°
2026-05-07 14:12 49.99387 8.91478 7429 ft 271 kts
2026-05-07 14:12 50.01236 8.92007 7049 ft 271 kts 17°
2026-05-07 14:12 50.02922 8.93271 6853 ft 264 kts 32°
2026-05-07 14:13 50.04299 8.95059 6725 ft 254 kts 45°
2026-05-07 14:13 50.05510 8.96981 6580 ft 243 kts 32°
2026-05-07 14:13 50.07039 8.97865 6308 ft 233 kts
2026-05-07 14:13 50.08629 8.97570 5977 ft 231 kts 346°
2026-05-07 14:14 50.10190 8.96979 5641 ft 230 kts 344°
2026-05-07 14:14 50.11618 8.95971 5315 ft 226 kts 315°
2026-05-07 14:14 50.12317 8.93856 4999 ft 224 kts 275°
2026-05-07 14:14 50.11953 8.91523 4690 ft 227 kts 243°
2026-05-07 14:15 50.11256 8.89299 4354 ft 227 kts 250°
2026-05-07 14:15 50.10701 8.87001 4204 ft 226 kts 251°
2026-05-07 14:15 50.10169 8.84715 3927 ft 224 kts 251°
2026-05-07 14:15 50.09634 8.82434 3634 ft 224 kts 251°
2026-05-07 14:16 50.09102 8.80176 3336 ft 218 kts 251°
2026-05-07 14:16 50.08591 8.78011 3044 ft 211 kts 251°
2026-05-07 14:16 50.08092 8.75887 2747 ft 204 kts 252°
2026-05-07 14:16 50.07706 8.73827 2328 ft 192 kts 260°
2026-05-07 14:17 50.07473 8.71852 1910 ft 180 kts 260°
2026-05-07 14:17 50.07209 8.70013 1716 ft 167 kts 257°
2026-05-07 14:17 50.06874 8.68349 1511 ft 155 kts 252°
2026-05-07 14:17 50.06494 8.66824 1289 ft 148 kts 248°
2026-05-07 14:18 50.06117 8.65367 1101 ft 143 kts 249°
2026-05-07 14:18 50.05767 8.63947 986 ft 139 kts 251°
2026-05-07 14:18 50.05480 8.62740 931 ft 138 kts 250°
2026-05-07 14:18 50.05153 8.61341 795 ft 139 kts 250°
2026-05-07 14:19 50.04817 8.59953 643 ft 139 kts 249°
2026-05-07 14:19 50.04475 8.58559 433 ft 137 kts 251°
2026-05-07 14:19 50.04171 8.57245 369 ft 102 kts 250°
2026-05-07 14:19 50.04070 8.56781 364 ft 18 kts 270°
2026-05-07 14:20 50.04152 8.56764 359 ft 10 kts 15°
2026-05-07 14:20 50.04177 8.56773 358 ft 3 kts 13°
2026-05-07 14:20 50.04179 8.56773 358 ft 0 kts 13°
2026-05-07 14:21 50.04182 8.56775 358 ft 3 kts 13°
2026-05-07 14:22 50.04186 8.56776 358 ft 0 kts 12°
2026-05-07 14:22 50.04192 8.56778 358 ft 6 kts 12°
2026-05-07 14:23 50.04233 8.56749 359 ft 6 kts 268°
2026-05-07 14:23 50.04212 8.56634 358 ft 21 kts 249°
2026-05-07 14:23 50.04152 8.56386 361 ft 20 kts 249°
2026-05-07 14:23 50.04197 8.56262 355 ft 15 kts 342°
2026-05-07 14:24 50.04277 8.56219 356 ft 10 kts 333°
2026-05-07 14:24 50.04290 8.56141 359 ft 8 kts 262°
2026-05-07 14:24 50.04345 8.56053 357 ft 15 kts 338°
2026-05-07 14:24 50.04438 8.56056 361 ft 13 kts 53°
2026-05-07 14:25 50.04469 8.56187 356 ft 12 kts 69°
2026-05-07 14:25 50.04498 8.56307 356 ft 11 kts 69°
2026-05-07 14:25 50.04524 8.56408 358 ft 8 kts 69°
2026-05-07 14:25 50.04507 8.56461 363 ft 6 kts 154°
2026-05-07 14:26 50.04481 8.56476 360 ft 0 kts 160°
2026-05-07 14:26 50.04468 8.56483 362 ft 1 kts 160°
2026-05-07 14:26 50.04466 8.56485 361 ft 0 kts 160°